KD8PH Weather Reports


Display with metric or nautical units.
time (UTC)temp
F
wind
direction
speed
MPH
gust
MPH
rain 1hr
in
rain 24hr
in
rain mn
in
humidity
%
barometer
mb
20210918203521 74 0.0 6.0 0.00 0.00 0.00 89 1015.8
20210918202522 74 135 1.0 7.0 0.00 0.00 0.00 89 1015.9
20210918201521 74 135 1.0 7.0 0.00 0.00 0.00 89 1016.1
20210918200521 74 0.0 1.0 0.00 0.00 0.00 90 1016.3
20210918195521 75 0.0 4.0 0.00 0.00 0.00 89 1016.4
20210918194521 76 135 3.0 8.0 0.00 0.00 0.00 89 1016.6
20210918193521 76 157 3.0 9.0 0.00 0.00 0.00 88 1016.7
20210918192521 76 135 5.0 13.0 0.00 0.00 0.00 89 1016.7
20210918191521 76 135 4.0 13.0 0.00 0.00 0.00 88 1016.9
20210918190521 76 135 2.0 9.0 0.00 0.00 0.00 89 1016.9
20210918185521 76 157 1.0 5.0 0.00 0.00 0.00 90 1017.0
20210918184521 76 112 1.0 7.0 0.00 0.00 0.00 90 1017.0
20210918183521 76 0.0 0.0 0.00 0.00 0.00 90 1017.1
20210918182521 75 0.0 0.0 0.00 0.00 0.00 90 1017.2
20210918181521 76 0.0 0.0 0.00 0.00 0.00 90 1017.3
20210918180521 76 0.0 0.0 0.00 0.00 0.00 90 1017.4
20210918175521 75 0.0 0.0 0.00 0.00 0.00 90 1017.6
20210918174521 75 0.0 1.0 0.00 0.00 0.00 91 1017.6
20210918173522 75 0.0 0.0 0.00 0.00 0.00 91 1017.7
20210918172521 75 0.0 0.0 0.00 0.00 0.00 91 1017.9
20210918171521 75 0.0 4.0 0.00 0.00 0.00 91 1018.0
20210918170521 75 0.0 0.0 0.00 0.00 0.00 91 1018.1
20210918165521 75 0.0 0.0 0.00 0.00 0.00 91 1018.1
20210918164522 75 0.0 0.0 0.00 0.00 0.00 91 1018.1
20210918163521 75 0.0 4.0 0.00 0.00 0.00 92 1018.1
20210918162521 74 0.0 0.0 0.00 0.00 0.00 91 1018.1
20210918161521 75 90 1.0 4.0 0.00 0.00 0.00 91 1018.2
20210918160521 75 135 1.0 7.0 0.00 0.00 0.00 90 1018.2
20210918155521 75 0.0 0.0 0.00 0.00 0.00 89 1018.3
20210918154521 76 135 3.0 8.0 0.00 0.00 0.00 88 1018.3
20210918153523 76 135 1.0 7.0 0.00 0.00 0.00 88 1018.2
20210918152521 76 0.0 4.0 0.00 0.00 0.00 88 1018.2
20210918151521 76 112 1.0 8.0 0.00 0.00 0.00 89 1018.0
20210918150521 76 135 3.0 10.0 0.00 0.00 0.00 88 1018.1
20210918145520 76 0.0 0.0 0.00 0.00 0.00 88 1018.1
20210918144520 76 0.0 0.0 0.00 0.00 0.00 89 1018.1
20210918143521 76 0.0 0.0 0.00 0.00 0.00 89 1018.0
20210918142520 76 0.0 0.0 0.00 0.00 0.00 89 1017.9
20210918141521 76 0.0 0.0 0.00 0.00 0.00 90 1017.9
20210918140521 76 0.0 0.0 0.00 0.00 0.00 90 1018.0
20210918135520 76 0.0 0.0 0.00 0.00 0.00 90 1018.0
20210918134520 75 0.0 0.0 0.00 0.00 0.00 91 1017.9
20210918133522 75 0.0 0.0 0.00 0.00 0.00 91 1017.7
20210918132523 75 0.0 0.0 0.00 0.00 0.00 91 1017.7
20210918131523 75 0.0 0.0 0.00 0.00 0.00 91 1017.6
20210918130522 75 0.0 0.0 0.00 0.00 0.00 92 1017.5
20210918125522 74 0.0 0.0 0.00 0.00 0.00 92 1017.5
20210918124522 74 0.0 0.0 0.00 0.00 0.00 92 1017.5
20210918123522 74 0.0 0.0 0.00 0.00 0.00 92 1017.6
20210918122522 74 0.0 0.0 0.00 0.00 0.00 92 1017.6
20210918121522 74 0.0 0.0 0.00 0.00 0.00 91 1017.6
20210918120522 74 0.0 0.0 0.00 0.00 0.00 91 1017.8
20210918115522 74 0.0 0.0 0.00 0.00 0.00 91 1017.8
20210918114522 74 0.0 0.0 0.00 0.00 0.00 91 1017.8
20210918113523 74 0.0 0.0 0.00 0.00 0.00 91 1018.0
20210918112522 74 0.0 0.0 0.00 0.00 0.00 91 1018.0
20210918111522 74 0.0 0.0 0.00 0.00 0.00 91 1017.8
20210918110524 74 0.0 0.0 0.00 0.00 0.00 91 1017.8
20210918105522 74 0.0 0.0 0.00 0.00 0.00 91 1017.7
20210918104522 74 0.0 0.0 0.00 0.00 0.00 91 1017.6
20210918103522 74 0.0 0.0 0.00 0.00 0.00 91 1017.4
20210918102522 74 0.0 0.0 0.00 0.00 0.00 91 1017.5
20210918101522 74 0.0 0.0 0.00 0.00 0.00 91 1017.4
20210918100522 74 0.0 0.0 0.00 0.00 0.00 91 1017.3
20210918095522 75 0.0 0.0 0.00 0.00 0.00 91 1017.4
20210918094522 74 0.0 0.0 0.00 0.00 0.00 91 1017.4
20210918093522 75 0.0 0.0 0.00 0.00 0.00 91 1017.4
20210918092522 75 0.0 0.0 0.00 0.00 0.00 91 1017.2
20210918091522 75 0.0 0.0 0.00 0.00 0.00 90 1017.3
20210918090522 75 0.0 0.0 0.00 0.00 0.00 90 1017.3
20210918085522 75 0.0 0.0 0.00 0.00 0.00 90 1017.2
20210918084522 75 0.0 0.0 0.00 0.00 0.00 90 1017.1
20210918083522 75 0.0 0.0 0.00 0.00 0.00 90 1017.0
20210918082522 75 0.0 0.0 0.00 0.00 0.00 90 1016.8
20210918081522 75 0.0 0.0 0.00 0.00 0.00 90 1016.8
20210918080522 75 0.0 0.0 0.00 0.00 0.00 90 1016.8
20210918075521 75 0.0 0.0 0.00 0.00 0.00 90 1016.9
20210918074522 75 0.0 1.0 0.00 0.00 0.00 90 1016.9
20210918073522 75 0.0 0.0 0.00 0.00 0.00 90 1017.0
20210918072521 75 0.0 0.0 0.00 0.00 0.00 90 1017.0
20210918071521 75 0.0 0.0 0.00 0.00 0.00 90 1017.1
20210918070522 75 0.0 0.0 0.00 0.00 0.00 91 1017.1
20210918065522 74 0.0 1.0 0.00 0.00 0.00 92 1017.0
20210918064522 74 0.0 0.0 0.00 0.00 0.00 92 1016.8
20210918063522 74 0.0 0.0 0.00 0.00 0.00 92 1016.6
20210918062521 74 0.0 0.0 0.00 0.00 0.00 92 1016.7
20210918061521 74 0.0 0.0 0.00 0.00 0.00 91 1016.9
20210918060521 75 0.0 0.0 0.00 0.00 0.00 91 1016.9
20210918055521 75 0.0 3.0 0.00 0.00 0.00 91 1016.9
20210918054521 75 0.0 0.0 0.00 0.00 0.00 91 1016.9
20210918053521 75 0.0 0.0 0.00 0.00 0.00 90 1016.9
20210918052521 75 0.0 0.0 0.00 0.00 0.00 90 1017.0
20210918051521 76 0.0 0.0 0.00 0.00 0.00 90 1017.1
20210918050521 76 0.0 0.0 0.00 0.00 0.00 90 1017.1
20210918045521 76 0.0 1.0 0.00 0.00 0.00 90 1017.1
20210918044521 75 0.0 3.0 0.00 0.00 0.00 90 1017.2
20210918043521 75 0.0 0.0 0.00 0.00 0.00 91 1017.3
20210918042521 75 0.0 0.0 0.00 0.00 0.00 91 1017.2
20210918041521 76 0.0 0.0 0.00 0.00 0.00 90 1017.4
20210918040521 76 0.0 0.0 0.00 0.00 0.00 90 1017.4
20210918035521 76 0.0 2.0 0.00 0.00 0.00 90 1017.6
20210918034521 76 0.0 0.0 0.00 0.00 0.00 90 1017.7
20210918033521 76 0.0 0.0 0.00 0.00 0.00 89 1017.7
20210918032521 76 0.0 0.0 0.00 0.00 0.00 89 1017.7
20210918031521 77 0.0 0.0 0.00 0.00 0.00 88 1017.8
20210918030520 77 0.0 3.0 0.00 0.00 0.00 88 1017.8
20210918025521 77 0.0 0.0 0.00 0.00 0.00 88 1017.7
20210918024521 77 112 1.0 6.0 0.00 0.00 0.00 88 1017.8
20210918023520 77 0.0 0.0 0.00 0.00 0.00 88 1017.8
20210918022520 77 90 1.0 4.0 0.00 0.00 0.00 88 1017.7
20210918021520 77 0.0 1.0 0.00 0.00 0.00 88 1017.5
20210918020520 77 0.0 4.0 0.00 0.00 0.00 88 1017.4
20210918015520 77 0.0 5.0 0.00 0.00 0.00 87 1017.2
20210918014520 77 135 1.0 7.0 0.00 0.00 0.00 87 1017.2
20210918013520 77 135 1.0 5.0 0.00 0.00 0.00 86 1017.4
20210918012520 77 0.0 0.0 0.00 0.00 0.00 87 1017.5
20210918011521 77 0.0 0.0 0.00 0.00 0.00 87 1017.5
20210918010520 77 0.0 0.0 0.00 0.00 0.00 87 1017.5
20210918005522 77 0.0 0.0 0.00 0.00 0.00 87 1017.4
20210918004522 77 0.0 0.0 0.00 0.00 0.00 88 1017.1
20210918003522 77 0.0 0.0 0.00 0.00 0.00 88 1016.9
20210918002523 77 0.0 0.0 0.00 0.00 0.00 87 1016.8
20210918001522 78 0.0 0.0 0.00 0.00 0.00 87 1016.7
20210918000523 78 0.0 0.0 0.00 0.00 0.00 86 1016.7
20210917235523 78 0.0 0.0 0.00 0.00 0.00 86 1016.6
20210917234522 78 0.0 0.0 0.00 0.00 0.00 84 1016.5
20210917233522 78 0.0 0.0 0.00 0.00 0.00 83 1016.5
20210917232522 79 0.0 0.0 0.00 0.00 0.00 83 1016.5
20210917231522 79 0.0 0.0 0.00 0.00 0.00 83 1016.5
20210917230523 79 157 1.0 5.0 0.00 0.00 0.00 83 1016.4
20210917225523 79 135 2.0 6.0 0.00 0.00 0.00 82 1016.4
20210917224522 79 157 1.0 4.0 0.00 0.00 0.00 83 1016.3
20210917223522 79 157 1.0 4.0 0.00 0.00 0.00 83 1016.4
20210917222522 79 112 1.0 4.0 0.00 0.00 0.00 83 1016.1
20210917221522 79 0.0 0.0 0.00 0.00 0.00 81 1016.0
20210917220522 79 0.0 0.0 0.00 0.00 0.00 81 1016.1
20210917215522 79 0.0 0.0 0.00 0.00 0.00 82 1016.0
20210917214522 80 0.0 0.0 0.00 0.00 0.00 82 1015.8
20210917213522 80 0.0 4.0 0.00 0.00 0.00 82 1015.8
20210917212522 79 0.0 0.0 0.00 0.00 0.00 82 1015.7
20210917211522 79 0.0 2.0 0.00 0.00 0.00 81 1015.7
20210917210522 79 0.0 0.0 0.00 0.00 0.00 82 1015.6
20210917205522 79 0.0 3.0 0.00 0.00 0.00 83 1015.8
20210917204522 79 0.0 0.0 0.00 0.00 0.00 83 1015.9